Location: Bothwell
(41.7170°N, 112.2589°W)
Time: 11:18:18
(UTC+00:00)

Tiros 1 despin weight - All Passes

Search period start: 15 May 2026 00:00
Search period end: 25 May 2026 00:00
Orbit: 555 x 591 km, 48.2° (Epoch: 14 May)

Date Brightness Start Highest point End Pass type
(mag) Time Alt. Az. Time Alt. Az. Time Alt. Az.
15 May - 12:00:54 10° SW 12:04:57 44° SE 12:08:59 10° ENE daylight
15 May - 13:41:22 10° W 13:45:29 50° NNW 13:49:36 10° ENE daylight
15 May - 15:22:46 10° WNW 15:26:36 33° N 15:30:26 10° ENE daylight
15 May - 17:03:31 10° WNW 17:07:40 57° NNE 17:11:48 10° E daylight
15 May - 18:44:15 10° WNW 18:48:05 35° SW 18:51:54 10° SSE daylight
16 May - 10:24:55 10° SSE 10:26:47 13° SE 10:28:38 10° ESE visible
16 May - 12:02:29 10° SW 12:06:42 66° SSE 12:10:54 10° ENE daylight
16 May - 13:43:24 10° W 13:47:25 41° NNW 13:51:25 10° ENE daylight
16 May - 15:24:43 10° WNW 15:28:35 34° N 15:32:27 10° ENE daylight
16 May - 17:05:20 10° WNW 17:09:32 76° NNE 17:13:43 10° ESE daylight
16 May - 18:46:24 10° W 18:49:44 23° SW 18:53:04 10° S daylight
17 May - 10:25:15 10° S 10:28:22 20° SE 10:31:27 10° E visible
17 May - 12:04:14 10° WSW 12:08:29 87° NNW 12:12:44 10° ENE daylight
17 May - 13:45:27 10° WNW 13:49:22 36° N 13:53:17 10° ENE daylight
17 May - 15:26:36 10° WNW 15:30:34 38° NNE 15:34:30 10° E daylight
17 May - 17:07:09 10° WNW 17:11:21 78° SSW 17:15:32 10° SE daylight
17 May - 18:48:54 10° W 18:51:21 15° SW 18:53:46 10° S daylight
18 May - 10:26:16 10° SSW 10:30:00 30° SE 10:33:42 10° E visible
18 May - 12:06:06 10° WSW 12:10:19 65° NNW 12:14:32 10° ENE daylight
18 May - 13:47:28 10° WNW 13:51:21 34° N 13:55:12 10° ENE daylight
18 May - 15:28:26 10° WNW 15:32:30 45° NNE 15:36:32 10° E daylight
18 May - 17:09:01 10° WNW 17:13:06 53° SW 17:17:11 10° SE daylight
19 May - 10:27:35 10° SW 10:31:40 44° SE 10:35:43 10° ENE visible
19 May - 12:08:03 10° W 12:12:12 50° NNW 12:16:20 10° ENE daylight
19 May - 13:49:27 10° WNW 13:53:20 33° N 13:57:09 10° ENE daylight
19 May - 15:30:14 10° WNW 15:34:23 57° NNE 15:38:31 10° E daylight
19 May - 17:10:58 10° WNW 17:14:48 35° SW 17:18:37 10° SSE daylight
20 May - 08:51:34 10° SSE 08:53:28 13° SE 08:55:22 10° ESE visible
20 May - 10:29:09 10° SW 10:33:24 66° SSE 10:37:37 10° ENE visible
20 May - 12:10:04 10° W 12:14:07 41° NNW 12:18:08 10° ENE daylight
20 May - 13:51:24 10° WNW 13:55:17 35° N 13:59:10 10° ENE daylight
20 May - 15:32:01 10° WNW 15:36:14 76° NNE 15:40:25 10° ESE daylight
20 May - 17:13:06 10° W 17:16:27 23° SW 17:19:46 10° S daylight
21 May - 08:51:54 10° S 08:55:02 20° SE 08:58:09 10° E visible
21 May - 10:30:52 10° WSW 10:35:10 87° NNW 10:39:26 10° ENE visible
21 May - 12:12:05 10° WNW 12:16:03 36° N 12:19:59 10° ENE daylight
21 May - 13:53:15 10° WNW 13:57:14 38° N 14:01:11 10° E daylight
21 May - 15:33:49 10° WNW 15:38:02 78° SSW 15:42:13 10° SE daylight
21 May - 17:15:35 10° W 17:18:01 15° SW 17:20:28 10° S daylight
22 May - 08:52:53 10° SSW 08:56:39 30° SE 09:00:23 10° ENE visible
22 May - 10:32:43 10° WSW 10:36:59 65° NNW 10:41:13 10° ENE visible
22 May - 12:14:06 10° WNW 12:18:00 34° N 12:21:52 10° ENE daylight
22 May - 13:55:04 10° WNW 13:59:09 45° NNE 14:03:12 10° E daylight
22 May - 15:35:40 10° WNW 15:39:46 53° SW 15:43:51 10° SE daylight
23 May - 08:54:11 10° SW 08:58:18 44° SE 09:02:23 10° ENE visible
23 May - 10:34:39 10° W 10:38:50 50° NNW 10:43:00 10° ENE visible
23 May - 12:16:04 10° WNW 12:19:57 33° N 12:23:49 10° ENE daylight
23 May - 13:56:51 10° WNW 14:01:02 57° NNE 14:05:10 10° E daylight
23 May - 15:37:36 10° WNW 15:41:27 35° SW 15:45:16 10° SSE daylight
24 May - 07:18:09 10° SSE 07:20:05 13° SE 07:22:00 10° ESE visible
24 May - 08:55:44 10° SW 09:00:00 66° SSE 09:04:15 10° ENE visible
24 May - 10:36:38 10° W 10:40:44 42° NNW 10:44:47 10° ENE visible
24 May - 12:17:59 10° WNW 12:21:54 35° N 12:25:48 10° ENE daylight
24 May - 13:58:37 10° WNW 14:02:52 75° NNE 14:07:03 10° ESE daylight
24 May - 15:39:41 10° W 15:43:04 24° SW 15:46:25 10° S daylight
